KT2UU-13 Weather Reports


time (UTC)temp
C
wind
direction
speed
KPH
gust
KPH
rain 1hr
cm
rain 24hr
cm
rain mn
cm
humidity
%
barometer
mb
20260903100644 22 216 0.0 0.0 0.00 0.00 0.00 99 1018.6
20260903100143 22 216 0.0 0.0 0.00 0.00 0.00 99 1018.6
20260903095641 22 216 0.0 0.0 0.00 0.00 0.00 99 1018.6
20260903095141 22 208 0.0 0.0 0.00 0.00 0.00 99 1018.6
20260903094636 22 216 0.0 0.0 0.00 0.00 0.00 99 1018.7
20260903094131 22 216 0.0 0.0 0.00 0.00 0.00 99 1018.5
20260903093626 22 208 0.0 0.0 0.00 0.00 0.00 99 1018.7
20260903093121 22 208 0.0 0.0 0.00 0.00 0.00 99 1018.8
20260903092621 22 208 0.0 0.0 0.00 0.00 0.00 99 1018.8
20260903091614 22 216 0.0 0.0 0.00 0.00 0.00 99 1018.9
20260903091109 22 216 0.0 0.0 0.00 0.00 0.00 99 1018.9
20260903090605 22 216 0.0 0.0 0.00 0.00 0.00 99 1018.7
20260903090103 23 215 0.0 0.0 0.00 0.00 0.00 99 1018.7
20260903085602 23 215 0.0 0.0 0.00 0.00 0.00 99 1018.5
20260903085058 23 215 0.0 0.0 0.00 0.00 0.00 99 1018.6
20260903084555 23 216 0.0 0.0 0.00 0.00 0.00 99 1018.6
20260903084051 23 216 0.0 0.0 0.00 0.00 0.00 99 1018.6
20260903083547 23 215 0.0 0.0 0.00 0.00 0.00 99 1018.8
20260903083046 23 216 0.0 0.0 0.00 0.00 0.00 99 1018.8
20260903082540 23 215 0.0 0.0 0.00 0.00 0.00 99 1018.6
20260903082036 23 216 0.0 0.0 0.00 0.00 0.00 99 1018.7
20260903081531 23 215 0.0 0.0 0.00 0.00 0.00 99 1018.6
20260903081027 23 208 0.0 0.0 0.00 0.00 0.00 99 1018.7
20260903080523 23 208 0.0 0.0 0.00 0.00 0.00 99 1018.4
20260903080020 23 208 0.0 0.0 0.00 0.00 0.00 99 1018.5
20260903075514 23 208 0.0 0.0 0.00 0.00 0.00 99 1018.4
20260903075009 23 208 0.0 0.0 0.00 0.00 0.00 99 1018.4
20260903074509 23 208 0.0 0.0 0.00 0.00 0.00 99 1018.3
20260903074003 23 208 0.0 0.0 0.00 0.00 0.00 99 1018.2
20260903073459 23 208 0.0 0.0 0.00 0.00 0.00 99 1018.5
20260903072954 23 208 0.0 0.0 0.00 0.00 0.00 99 1018.1
20260903072450 23 213 0.0 0.0 0.00 0.00 0.00 99 1018.4
20260903071947 23 213 0.0 0.0 0.00 0.00 0.00 99 1018.1
20260903071442 23 208 0.0 0.0 0.00 0.00 0.00 99 1018.3
20260903070938 23 213 0.0 0.0 0.00 0.00 0.00 99 1018.3
20260903070432 23 208 0.0 0.0 0.00 0.00 0.00 99 1018.3
20260903065927 23 213 0.0 0.0 0.00 0.00 0.00 99 1018.1
20260903065427 23 216 0.0 0.0 0.00 0.00 0.00 99 1018.3
20260903064926 23 216 0.0 0.0 0.00 0.00 0.00 99 1018.1
20260903064421 23 216 0.0 0.0 0.00 0.00 0.00 99 1018.1
20260903063917 23 216 0.0 0.0 0.00 0.00 0.00 99 1018.2
20260903063412 23 216 0.0 0.0 0.00 0.00 0.00 99 1018.1
20260903062907 23 216 0.0 0.0 0.00 0.00 0.00 98 1018.2
20260903062402 23 216 0.0 0.0 0.00 0.00 0.00 98 1018.3
20260903061858 23 216 0.0 0.0 0.00 0.00 0.00 98 1018.2
20260903061357 23 216 0.0 0.0 0.00 0.00 0.00 98 1018.3
20260903060853 23 216 0.0 0.0 0.00 0.00 0.00 97 1018.4
20260903060353 23 216 0.0 0.0 0.00 0.00 0.00 97 1018.5
20260903055850 23 216 0.0 0.0 0.00 0.00 0.00 97 1018.4
20260903055348 23 216 0.0 0.0 0.00 0.00 0.00 97 1018.5
20260903054844 23 216 0.0 0.0 0.00 0.00 0.00 97 1018.6
20260903054338 23 216 0.0 0.0 0.00 0.00 0.00 97 1018.5
20260903053835 23 208 0.0 0.0 0.00 0.00 0.00 97 1018.5
20260903053330 23 208 0.0 0.0 0.00 0.00 0.00 97 1018.4
20260903052825 24 213 0.0 0.0 0.00 0.00 0.00 96 1018.6
20260903052321 24 213 0.0 0.0 0.00 0.00 0.00 96 1018.5
20260903051816 24 215 0.0 0.0 0.00 0.00 0.00 96 1018.4
20260903051312 24 215 0.0 0.0 0.00 0.00 0.00 96 1018.5
20260903050807 24 215 0.0 0.0 0.00 0.00 0.00 96 1018.6
20260903050306 24 215 0.0 0.0 0.00 0.00 0.00 96 1018.3
20260903045801 24 215 0.0 0.0 0.00 0.00 0.00 95 1018.4
20260903045257 24 215 0.0 0.0 0.00 0.00 0.00 95 1018.5
20260903044753 24 215 0.0 0.0 0.00 0.00 0.00 95 1018.4
20260903044248 25 215 0.0 0.0 0.00 0.00 0.00 94 1018.2
20260903043745 25 215 0.0 0.0 0.00 0.00 0.00 94 1018.2
20260903043244 25 215 0.0 0.0 0.00 0.00 0.00 93 1018.2
20260903042743 25 215 0.0 0.0 0.00 0.00 0.00 93 1018.2
20260903042239 25 216 0.0 0.0 0.00 0.00 0.00 92 1018.1
20260903041735 25 216 0.0 0.0 0.00 0.00 0.00 92 1018.2
20260903041231 25 215 0.0 0.0 0.00 0.00 0.00 91 1018.0
20260903040725 25 215 0.0 0.0 0.00 0.00 0.00 90 1018.0
20260903040220 25 215 0.0 0.0 0.00 0.00 0.00 90 1018.3
20260903035715 25 215 0.0 0.0 0.00 0.00 0.00 89 1018.2
20260903035206 25 215 0.0 0.0 0.00 0.00 0.00 89 1018.2
20260903034705 26 215 0.0 0.0 0.00 0.00 0.00 89 1018.1
20260903034200 26 215 0.0 0.0 0.00 0.00 0.00 88 1018.2
20260903033656 26 215 0.0 0.0 0.00 0.00 0.00 87 1018.4
20260903033150 26 215 0.0 0.0 0.00 0.00 0.00 87 1018.3
20260903032645 26 215 0.0 0.0 0.00 0.00 0.00 87 1018.5
20260903032140 26 215 0.0 0.0 0.00 0.00 0.00 88 1018.4
20260903031636 26 215 0.0 0.0 0.00 0.00 0.00 87 1018.4
20260903031131 26 215 0.0 0.0 0.00 0.00 0.00 88 1018.5
20260903030626 26 215 0.0 0.0 0.00 0.00 0.00 88 1018.5
20260903030122 26 208 0.0 0.0 0.00 0.00 0.00 88 1018.6
20260903025617 26 215 0.0 0.0 0.00 0.00 0.00 89 1018.5
20260903025113 26 215 0.0 0.0 0.00 0.00 0.00 89 1018.6
20260903024613 26 215 0.0 0.0 0.00 0.00 0.00 89 1018.5
20260903024106 26 215 0.0 0.0 0.00 0.00 0.00 88 1018.6
20260903023602 26 215 0.0 0.0 0.00 0.00 0.00 88 1018.7
20260903023051 26 215 0.0 0.0 0.00 0.00 0.00 88 1018.7
20260903022551 26 209 0.0 0.0 0.00 0.00 0.00 88 1018.6
20260903022050 26 216 0.0 0.0 0.00 0.00 0.00 87 1018.5
20260903021544 26 216 0.0 0.0 0.00 0.00 0.00 86 1018.4
20260903021039 26 216 0.0 0.0 0.00 0.00 0.00 86 1018.4
20260903020535 26 216 0.0 0.0 0.00 0.00 0.00 86 1018.4
20260903020035 26 216 0.0 0.0 0.00 0.00 0.00 86 1018.4
20260903015530 26 216 0.0 0.0 0.00 0.00 0.00 85 1018.5
20260903015026 27 216 0.0 0.0 0.00 0.00 0.00 85 1018.4
20260903014525 27 216 0.0 0.0 0.00 0.00 0.00 85 1018.5
20260903014021 27 216 0.0 0.0 0.00 0.00 0.00 85 1018.3
20260903013520 27 216 0.0 0.0 0.00 0.00 0.00 84 1018.2
20260903013014 27 216 0.0 0.0 0.00 0.00 0.00 83 1018.2
20260903012508 27 216 0.0 0.0 0.00 0.00 0.00 83 1018.0
20260903012007 27 216 0.0 0.0 0.00 0.00 0.00 83 1017.9
20260903011502 27 216 0.0 0.0 0.00 0.00 0.00 83 1018.2
20260903010956 27 216 0.0 0.0 0.00 0.00 0.00 82 1018.0
20260903010451 27 216 0.0 0.0 0.00 0.00 0.00 83 1017.7
20260903005949 27 207 0.0 0.0 0.00 0.00 0.00 83 1017.6
20260903005444 28 206 0.0 0.0 0.00 0.00 0.00 82 1017.9
20260903004941 28 206 0.0 0.0 0.00 0.00 0.00 80 1017.7
20260903004435 28 210 0.0 0.0 0.00 0.00 0.00 79 1017.8
20260903003931 28 206 0.0 0.0 0.00 0.00 0.00 78 1017.6
20260903003431 28 206 0.0 0.0 0.00 0.00 0.00 78 1017.7
20260903002925 28 216 0.0 0.0 0.00 0.00 0.00 77 1017.6
20260903002420 28 216 0.0 0.0 0.00 0.00 0.00 78 1017.7
20260903001915 29 210 0.0 0.0 0.00 0.00 0.00 77 1017.6
20260903001409 29 210 0.0 0.0 0.00 0.00 0.00 76 1017.7
20260903000903 30 216 0.0 0.0 0.00 0.00 0.00 76 1017.6
20260903000359 30 206 0.0 0.0 0.00 0.00 0.00 76 1017.7
20260902235857 30 205 0.0 0.0 0.00 0.00 0.00 73 1017.8
20260902235352 31 205 0.0 0.0 0.00 0.00 0.00 71 1017.8
20260902234851 31 213 0.0 0.0 0.00 0.00 0.00 71 1017.6
20260902234346 31 215 0.0 0.0 0.00 0.00 0.00 67 1017.7
20260902233844 32 213 0.0 0.0 0.00 0.00 0.00 65 1017.8
20260902233340 33 215 0.0 0.0 0.00 0.00 0.00 65 1017.8
20260902232838 34 209 0.0 0.0 0.00 0.00 0.00 62 1017.9
20260902232333 34 209 0.0 0.0 0.00 0.00 0.00 63 1017.9
20260902231833 34 209 0.0 0.0 0.00 0.00 0.00 61 1017.9
20260902231328 34 211 0.0 0.0 0.00 0.00 0.00 63 1017.6
20260902230823 35 211 0.0 0.0 0.00 0.00 0.00 59 1017.8
20260902230322 35 211 0.0 0.0 0.00 0.00 0.00 58 1017.7
20260902225817 35 211 0.0 0.0 0.00 0.00 0.00 56 1018.0
20260902225312 35 211 0.0 0.0 0.00 0.00 0.00 53 1017.9
20260902224810 35 213 0.0 1.6 0.00 0.00 0.00 51 1017.8
20260902224305 35 213 0.0 0.0 0.00 0.00 0.00 51 1017.9
20260902223802 35 213 0.0 1.6 0.00 0.00 0.00 51 1018.0
20260902223301 35 213 0.0 1.6 0.00 0.00 0.00 50 1018.0
20260902222755 35 213 1.6 1.6 0.00 0.00 0.00 49 1018.1
20260902222254 36 219 0.0 0.0 0.00 0.00 0.00 51 1018.0
20260902221749 36 219 0.0 0.0 0.00 0.00 0.00 47 1017.8
20260902221248 36 219 0.0 1.6 0.00 0.00 0.00 48 1017.9
20260902220744 36 219 0.0 0.0 0.00 0.00 0.00 47 1018.0
20260902220243 36 213 0.0 3.2 0.00 0.00 0.00 50 1018.1
20260902215739 36 219 0.0 3.2 0.00 0.00 0.00 50 1018.1
20260902215234 35 213 0.0 1.6 0.00 0.00 0.00 49 1018.0
20260902214730 35 209 0.0 4.8 0.00 0.00 0.00 49 1018.2
20260902214228 37 219 0.0 0.0 0.00 0.00 0.00 45 1018.1
20260902213724 35 219 0.0 1.6 0.00 0.00 0.00 50 1017.9
20260902213219 36 219 3.2 6.4 0.00 0.00 0.00 48 1018.1
20260902212718 36 219 0.0 0.0 0.00 0.00 0.00 49 1018.0
20260902212215 36 219 0.0 1.6 0.00 0.00 0.00 49 1018.1
20260902211711 36 217 3.2 6.4 0.00 0.00 0.00 46 1018.0
20260902211206 37 219 0.0 1.6 0.00 0.00 0.00 45 1018.1
20260902210700 36 213 0.0 4.8 0.00 0.00 0.00 48 1018.2
20260902210155 36 219 0.0 0.0 0.00 0.00 0.00 45 1018.3
20260902205654 35 219 0.0 1.6 0.00 0.00 0.00 46 1018.1
20260902205149 36 212 0.0 1.6 0.00 0.00 0.00 44 1018.1
20260902204644 36 219 0.0 0.0 0.00 0.00 0.00 47 1018.3
20260902204138 36 219 0.0 1.6 0.00 0.00 0.00 45 1018.2
20260902203634 35 219 0.0 0.0 0.00 0.00 0.00 46 1018.4
20260902203134 35 213 1.6 3.2 0.00 0.00 0.00 47 1018.4
20260902202629 36 213 4.8 4.8 0.00 0.00 0.00 47 1018.4
20260902202126 36 219 3.2 3.2 0.00 0.00 0.00 45 1018.6
20260902201622 36 219 0.0 0.0 0.00 0.00 0.00 46 1018.4
20260902201121 36 219 0.0 3.2 0.00 0.00 0.00 47 1018.4
20260902200616 36 213 0.0 3.2 0.00 0.00 0.00 43 1018.4
20260902200113 36 213 3.2 3.2 0.00 0.00 0.00 45 1018.5
20260902195608 36 213 0.0 3.2 0.00 0.00 0.00 45 1018.7
20260902195107 36 219 3.2 4.8 0.00 0.00 0.00 44 1018.7
20260902194606 36 211 0.0 0.0 0.00 0.00 0.00 44 1018.7
20260902194102 36 224 3.2 4.8 0.00 0.00 0.00 43 1018.8
20260902193558 36 213 0.0 1.6 0.00 0.00 0.00 46 1018.9
20260902193057 36 211 0.0 0.0 0.00 0.00 0.00 48 1018.8
20260902192555 35 211 0.0 0.0 0.00 0.00 0.00 47 1018.8
20260902192054 35 215 0.0 1.6 0.00 0.00 0.00 51 1019.0
20260902191550 35 211 0.0 4.8 0.00 0.00 0.00 50 1019.1
20260902191044 35 211 3.2 3.2 0.00 0.00 0.00 50 1019.0
20260902190540 36 211 0.0 4.8 0.00 0.00 0.00 51 1019.1
20260902190035 35 209 0.0 0.0 0.00 0.00 0.00 52 1019.2
20260902185531 35 211 1.6 3.2 0.00 0.00 0.00 51 1019.2
20260902185026 35 216 3.2 3.2 0.00 0.00 0.00 52 1019.4
20260902184521 35 215 0.0 0.0 0.00 0.00 0.00 56 1019.3
20260902184017 35 215 0.0 1.6 0.00 0.00 0.00 53 1019.4
20260902183513 34 202 3.2 3.2 0.00 0.00 0.00 52 1019.5
20260902183009 34 212 0.0 1.6 0.00 0.00 0.00 55 1019.4
20260902182505 35 209 3.2 4.8 0.00 0.00 0.00 54 1019.3
20260902182000 35 211 0.0 4.8 0.00 0.00 0.00 53 1019.8
20260902181456 35 212 1.6 3.2 0.00 0.00 0.00 55 1019.6
20260902180951 35 213 0.0 1.6 0.00 0.00 0.00 57 1019.7
20260902180446 33 218 0.0 1.6 0.00 0.00 0.00 56 1019.7
20260902175941 33 219 4.8 6.4 0.00 0.00 0.00 60 1019.7
20260902175436 33 216 3.2 4.8 0.00 0.00 0.00 57 1019.8
20260902174932 34 215 4.8 4.8 0.00 0.00 0.00 58 1019.6
20260902174428 33 204 3.2 3.2 0.00 0.00 0.00 57 1019.9
20260902173924 33 214 0.0 1.6 0.00 0.00 0.00 57 1020.2
20260902173423 33 228 3.2 4.8 0.00 0.00 0.00 57 1020.2
20260902172918 33 215 0.0 3.2 0.00 0.00 0.00 59 1020.1
20260902172417 33 222 3.2 4.8 0.00 0.00 0.00 56 1020.4
20260902171912 33 218 4.8 6.4 0.00 0.00 0.00 57 1020.4
20260902171408 33 218 4.8 11.3 0.00 0.00 0.00 58 1020.4
20260902170904 33 204 0.0 6.4 0.00 0.00 0.00 65 1020.6
20260902170359 33 216 0.0 3.2 0.00 0.00 0.00 66 1020.7
20260902165854 33 216 0.0 6.4 0.00 0.00 0.00 69 1020.5
20260902165353 32 216 0.0 0.0 0.00 0.00 0.00 68 1020.6
20260902164849 32 213 1.6 4.8 0.00 0.00 0.00 66 1020.7
20260902164343 33 210 0.0 6.4 0.00 0.00 0.00 65 1020.7
20260902163842 33 213 0.0 0.0 0.00 0.00 0.00 68 1020.9
20260902163337 32 213 0.0 1.6 0.00 0.00 0.00 67 1020.9
20260902162835 32 204 0.0 0.0 0.00 0.00 0.00 67 1021.1
20260902162330 32 211 0.0 0.0 0.00 0.00 0.00 67 1021.1
20260902161825 32 204 0.0 1.6 0.00 0.00 0.00 67 1021.2
20260902161321 32 210 1.6 3.2 0.00 0.00 0.00 67 1021.2
20260902160817 32 217 3.2 3.2 0.00 0.00 0.00 68 1021.2
20260902160312 32 213 0.0 0.0 0.00 0.00 0.00 67 1021.3
20260902155810 31 216 0.0 1.6 0.00 0.00 0.00 70 1021.2
20260902155309 31 210 0.0 3.2 0.00 0.00 0.00 72 1021.5
20260902154804 31 216 1.6 3.2 0.00 0.00 0.00 71 1021.3
20260902154300 31 205 0.0 1.6 0.00 0.00 0.00 71 1021.3
20260902153758 31 205 0.0 0.0 0.00 0.00 0.00 73 1021.4
20260902153253 30 215 0.0 1.6 0.00 0.00 0.00 74 1021.4
20260902152749 31 217 1.6 4.8 0.00 0.00 0.00 71 1021.5
20260902152244 31 215 1.6 3.2 0.00 0.00 0.00 72 1021.2
20260902151739 30 215 1.6 3.2 0.00 0.00 0.00 74 1021.4
20260902151234 30 217 1.6 3.2 0.00 0.00 0.00 75 1021.4
20260902150729 30 213 0.0 1.6 0.00 0.00 0.00 74 1021.4
20260902150225 30 212 1.6 4.8 0.00 0.00 0.00 76 1021.2
20260902145724 30 215 1.6 3.2 0.00 0.00 0.00 77 1021.3
20260902145219 30 212 1.6 3.2 0.00 0.00 0.00 78 1021.3
20260902144715 29 215 3.2 4.8 0.00 0.00 0.00 79 1021.2
20260902144210 29 205 0.0 3.2 0.00 0.00 0.00 79 1021.1
20260902143706 29 213 1.6 3.2 0.00 0.00 0.00 80 1021.1
20260902143201 29 215 0.0 0.0 0.00 0.00 0.00 80 1021.2
20260902142656 29 216 0.0 0.0 0.00 0.00 0.00 79 1021.1
20260902142152 29 215 0.0 0.0 0.00 0.00 0.00 80 1021.2
20260902141652 29 215 0.0 0.0 0.00 0.00 0.00 81 1021.1
20260902141147 28 215 0.0 0.0 0.00 0.00 0.00 83 1021.2
20260902140642 28 215 0.0 0.0 0.00 0.00 0.00 83 1021.3
20260902140137 28 216 0.0 0.0 0.00 0.00 0.00 83 1021.1
20260902135636 28 209 0.0 0.0 0.00 0.00 0.00 82 1021.1
20260902135132 28 215 0.0 0.0 0.00 0.00 0.00 83 1021.3
20260902134627 27 215 0.0 0.0 0.00 0.00 0.00 84 1021.2
20260902134121 27 216 0.0 0.0 0.00 0.00 0.00 83 1021.3
20260902133622 27 215 0.0 0.0 0.00 0.00 0.00 85 1021.3
20260902133121 27 215 0.0 0.0 0.00 0.00 0.00 86 1021.2
20260902132618 27 215 0.0 0.0 0.00 0.00 0.00 86 1021.4
20260902132113 26 215 0.0 0.0 0.00 0.00 0.00 87 1021.3
20260902131609 26 215 0.0 0.0 0.00 0.00 0.00 86 1021.4
20260902131103 27 215 0.0 0.0 0.00 0.00 0.00 87 1021.2
20260902130559 27 215 0.0 0.0 0.00 0.00 0.00 86 1021.1
20260902130054 27 215 0.0 0.0 0.00 0.00 0.00 86 1021.1
20260902125550 26 215 0.0 0.0 0.00 0.00 0.00 87 1021.2
20260902125045 26 215 0.0 0.0 0.00 0.00 0.00 87 1021.1
20260902124543 26 215 0.0 0.0 0.00 0.00 0.00 89 1021.0
20260902124042 26 215 0.0 0.0 0.00 0.00 0.00 90 1021.1
20260902123538 25 215 0.0 0.0 0.00 0.00 0.00 91 1021.2
20260902123037 25 215 0.0 0.0 0.00 0.00 0.00 92 1021.0
20260902122532 24 215 0.0 0.0 0.00 0.00 0.00 96 1021.0
20260902122027 23 215 0.0 0.0 0.00 0.00 0.00 96 1021.1
20260902121522 23 215 0.0 0.0 0.00 0.00 0.00 98 1020.8
20260902121017 23 208 0.0 0.0 0.00 0.00 0.00 99 1020.8
20260902120514 22 215 0.0 0.0 0.00 0.00 0.00 99 1020.9
20260902120009 22 215 0.0 0.0 0.00 0.00 0.00 99 1021.0
20260902115504 22 215 0.0 0.0 0.00 0.00 0.00 99 1020.9
20260902115001 22 215 0.0 0.0 0.00 0.00 0.00 99 1020.9
20260902114456 21 215 0.0 0.0 0.00 0.00 0.00 99 1020.7
20260902113950 21 215 0.0 0.0 0.00 0.00 0.00 99 1020.7
20260902113447 21 215 0.0 0.0 0.00 0.00 0.00 99 1020.7
20260902112946 21 215 0.0 0.0 0.00 0.00 0.00 99 1020.8
20260902112442 21 215 0.0 0.0 0.00 0.00 0.00 99 1020.7
20260902111938 21 215 0.0 0.0 0.00 0.00 0.00 99 1020.6
20260902111434 21 215 0.0 0.0 0.00 0.00 0.00 99 1020.4
20260902110930 21 215 0.0 0.0 0.00 0.00 0.00 99 1020.6
20260902110425 21 215 0.0 0.0 0.00 0.00 0.00 99 1020.6
20260902105920 21 215 0.0 0.0 0.00 0.00 0.00 99 1020.5
20260902105415 21 215 0.0 0.0 0.00 0.00 0.00 99 1020.5
20260902104909 21 215 0.0 0.0 0.00 0.00 0.00 99 1020.3
20260902104405 21 215 0.0 0.0 0.00 0.00 0.00 99 1020.3
20260902103900 21 215 0.0 0.0 0.00 0.00 0.00 99 1020.2
20260902103354 22 215 0.0 0.0 0.00 0.00 0.00 99 1020.3
20260902102849 22 215 0.0 0.0 0.00 0.00 0.00 99 1020.2
20260902102348 21 215 0.0 0.0 0.00 0.00 0.00 99 1020.2
20260902101842 22 215 0.0 0.0 0.00 0.00 0.00 99 1020.1
20260902101336 21 215 0.0 0.0 0.00 0.00 0.00 99 1020.3